Regional Weather Roundup
Issued by NWS

Home | Current Version | Previous Version | Text Only | Print | Product List | Glossary Off
Versions: 1 2 3 4 5 6 7 8 9 10 11 12 13 14 15 16 17 18 19 20 21 22 23 24 25 26 27 28 29 30 31 32 33 34 35 36 37 38 39 40 41 42 43 44 45 46 47 48 49 50

000
ASUS45 KBOU 022007
RWRCO

WEATHER ROUNDUP FOR COLORADO
NATIONAL WEATHER SERVICE DENVER/BOULDER CO
200 PM MDT WED SEP 02 2015

NOTE: "FAIR" INDICATES FEW OR NO CLOUDS BELOW 12000 FEET WITH NO
SIGNIFICANT WEATHER AND/OR OBSTRUCTIONS TO VISIBILITY.

COZ001>005-013-030-031-022100-
...NORTHWEST COLORADO...

CITY           SKY/WX    TMP DP  RH WIND       PRES   REMARKS
CRAIG          PTSUNNY   82  39  21 SW15      30.14F
HAYDEN         NOT AVBL
MEEKER         CLOUDY    78  47  33 SW10      30.17F
MOUNT WERNER   NOT AVBL
STEAMBOAT SPGS MOSUNNY   76  41  28 E9        30.21F
WALDEN         MOSUNNY   70  32  24 W9        30.29F
$$

COZ006>008-011-022100-
...WEST CENTRAL VALLEYS...

CITY           SKY/WX    TMP DP  RH WIND       PRES   REMARKS
GRAND JUNCTION LGT RAIN  81  51  35 W7        30.09F
MONTROSE       MOSUNNY   84  46  26 MISG      30.16F
EAGLE          MOSUNNY   77  46  33 NW5       30.23F
RIFLE          MOSUNNY   81  48  31 W6        30.14F
DELTA          MOSUNNY   90  45  20 SW8       30.10F
NUCLA          MOSUNNY   82  43  24 NW7       30.19F
$$

COZ017>023-064>068-022100-
...SOUTHWEST COLORADO...

CITY           SKY/WX    TMP DP  RH WIND       PRES   REMARKS
DURANGO        PTSUNNY   80  43  26 W14       30.25F
CORTEZ         MOSUNNY   85  47  26 SW14      30.18F
PAGOSA SPRINGS PTSUNNY   78  35  21 S12       30.31F
TELLURIDE      PTSUNNY   71  41  33 W5        30.42S
WOLF CREEK PAS NOT AVBL
$$

COZ009-010-012-014-032>034-037-058>063-022100-
...CENTRAL COLORADO...

CITY           SKY/WX    TMP DP  RH WIND       PRES   REMARKS
ASPEN          PTSUNNY   73  42  32 N10       30.31F
BUENA VISTA    PTSUNNY   76  32  20 W6G21     30.30F
COPPER MTN     MOSUNNY   55  34  44 W14G23    30.62S
BERTHOUD PASS  FAIR      50  36  57 NW18G26   30.66S
COTTONWOOD PAS PTSUNNY   72  32  23 NW6       30.45F
GUNNISON       PTSUNNY   72  45  37 SW14G22   30.33F
KREMMLING      MOSUNNY   77  37  24 W9G20     30.27F
LEADVILLE      PTSUNNY   64  36  35 W12       30.44F
MONARCH PASS   MOSUNNY   57  32  38 W23G32    30.71F
SALIDA         PTSUNNY   83  31  15 W14G20    30.32F
SUNLIGHT       CLOUDY    59  46  63 CALM      30.56S
WILKERSON PASS PTSUNNY   64  34  32 W5        30.58F
$$

COZ069>075-022100-
...SAN LUIS VALLEY/SANGRE DE CRISTO MOUNTAINS...

CITY           SKY/WX    TMP DP  RH WIND       PRES   REMARKS
ALAMOSA        MOSUNNY   79  40  24 N6        30.28F
LA VETA PASS   MOSUNNY   70  34  26 S13G22    30.48F
SAGUACHE       MOSUNNY   73  45  35 W3        30.32F
$$

COZ035-036-038>040-022100-
...NORTHERN COLORADO FRONT RANGE...

CITY           SKY/WX    TMP DP  RH WIND       PRES   REMARKS
DENVER INTL AP MOSUNNY   89  34  14 NW7       30.07F
DMNS CITY PARK   N/A     87  35  15 S5G14     30.05F
AURORA         PTSUNNY   88  35  15 E6        30.09F
FRONT RANGE AP NOT AVBL
ERIE MUNI ARPT MOSUNNY   89  33  13 NE3       30.03F
BOULDER MUN AP MOSUNNY   86  39  19 SE5       30.04F
CENTENNIAL     PTSUNNY   86  33  15 VRB5      30.11F
BROOMFIELD     PTSUNNY   90  39  17 SE8       30.09F
FORT COLLINS   MOSUNNY   91  43  18 E5        30.01F
LONGMONT       MOSUNNY   93  38  14 S6        30.04F
$$

COZ041-046-047-076>085-087-088-022100-
...PIKES PEAK/PALMER DIVIDE AND SOUTHERN FOOTHILLS...

CITY           SKY/WX    TMP DP  RH WIND       PRES   REMARKS
COLO. SPRINGS  MOSUNNY   86  35  16 W5        30.14F
A. F. ACADEMY  PTSUNNY   82  35  18 VRB3      30.15F
ELLICOTT       MOSUNNY  N/A N/A N/A CALM      30.13F
FALCON         MOSUNNY   82  32  16 MISG      30.21F
FORT CARSON    SUNNY     87  40  19 VRB5      30.11F
LIMON          SUNNY     87  41  19 NW6G16    30.09F
MONUMENT HILL  MOSUNNY   79  32  18 CALM      30.22F
TRINIDAD       PTSUNNY   89  41  18 N3        30.11F
$$

COZ042>045-048>051-090-091-022100-
...NORTHEAST COLORADO...

CITY           SKY/WX    TMP DP  RH WIND       PRES   REMARKS
GREELEY ARPT   SUNNY     90  39  17 CALM      30.02F
AKRON          MOSUNNY   89  39  17 VRB6      30.01F
BURLINGTON     SUNNY     91  47  21 E5        29.98F
WRAY           CLOUDY    99  42  14 SE9       29.93F
STERLING       NOT AVBL
HOLYOKE        MOSUNNY   95  52  23 S6        29.95F
FORT MORGAN    MOSUNNY   91  40  16 S8G16     30.01F
$$

COZ086-089-092>099-022100-
...SOUTHEAST COLORADO...

CITY           SKY/WX    TMP DP  RH WIND       PRES   REMARKS
PUEBLO         SUNNY     94  40  15 VRB5G22   30.01F
LA JUNTA       SUNNY     97  42  15 N13       29.98F
LAMAR          SUNNY     95  48  20 W8        29.93F
SPRINGFIELD      N/A     97  45  16 SW8       29.99F
$$



USA.gov is the U.S. government's official web portal to all federal, state and local government web resources and services.